{"data":{"norad_id":53249,"epoch":"2026-05-24T21:16:48.268128Z","epoch_age_seconds":80929,"freshness":"FRESH","line1":"1 53249U 22086H   26144.88666977 -.00000616  00000+0 -20620-4 0  9993","line2":"2 53249  53.2131 212.0672 0001369  94.6632 265.4516 15.08836437212581","mean_motion":15.08836437,"eccentricity":0.0001369,"inclination_deg":53.2131,"raan_deg":212.0672,"arg_perigee_deg":94.6632,"mean_anomaly_deg":265.4516,"bstar":-2.062e-5,"rev_number":21258,"period_min":95.437780046135,"perigee_km":538.80722033495,"apogee_km":540.70133896732,"semimajor_km":6917.8912796511,"source":"CELESTRAK","updated_at":"2026-05-25T13:38:17.361196Z"}}